EW2652 Weather Reports


time (UTC)temp
F
wind
direction
speed
knots
gust
knots
rain 1hr
in
rain 24hr
in
rain mn
in
humidity
%
barometer
mb
20260507134514 56 308 0.0 1.7 0.00 0.00 0.00 90 1016.0
20260507133014 55 20 0.0 2.6 0.00 0.00 0.00 90 1016.0
20260507131522 55 54 0.9 2.6 0.00 0.00 0.00 91 1016.0
20260507130012 55 9 0.0 0.9 0.00 0.00 0.00 91 1015.9
20260507124510 55 5 0.0 1.7 0.00 0.00 0.00 91 1015.7
20260507123009 55 5 0.0 0.0 0.00 0.00 0.00 91 1015.6
20260507121507 55 5 0.0 1.7 0.00 0.00 0.00 91 1015.6
20260507120006 55 36 0.0 0.0 0.00 0.00 0.00 91 1015.5
20260507114604 55 36 0.0 1.7 0.00 0.00 0.00 90 1015.7
20260507113058 55 36 0.0 1.7 0.00 0.00 0.00 91 1015.6
20260507111557 55 344 0.0 1.7 0.00 0.00 0.00 91 1015.7
20260507110059 55 290 0.0 0.9 0.00 0.00 0.00 91 1015.8
20260507104556 55 290 0.0 1.7 0.00 0.00 0.00 90 1015.8
20260507103055 55 289 0.0 0.9 0.00 0.00 0.00 90 1016.0
20260507101559 56 282 0.0 0.9 0.00 0.00 0.00 89 1016.0
20260507100058 56 287 0.0 1.7 0.00 0.00 0.00 89 1016.1
20260507094547 56 158 0.0 0.9 0.00 0.00 0.00 89 1016.2
20260507093045 56 158 0.0 0.9 0.00 0.00 0.00 89 1016.3
20260507091545 57 158 0.0 0.9 0.00 0.00 0.00 89 1016.4
20260507090047 57 158 0.0 0.0 0.00 0.00 0.00 89 1016.6
20260507084547 57 158 0.0 1.7 0.00 0.00 0.00 88 1016.6
20260507083052 57 88 0.9 2.6 0.00 0.00 0.00 87 1016.8
20260507081540 57 319 0.0 0.9 0.00 0.00 0.00 87 1016.9
20260507080037 58 311 0.9 2.6 0.00 0.00 0.00 86 1016.9
20260507074534 58 327 0.0 0.9 0.00 0.00 0.00 85 1017.1
20260507073032 59 267 0.9 1.7 0.00 0.00 0.00 87 1017.0
20260507071531 59 196 0.0 1.7 0.00 0.00 0.00 86 1017.1
20260507070035 59 194 0.0 1.7 0.00 0.00 0.00 86 1017.1
20260507064534 60 234 0.0 1.7 0.00 0.00 0.00 84 1017.3
20260507063030 60 238 0.0 0.9 0.00 0.00 0.00 84 1017.3
20260507061527 60 234 0.0 0.9 0.00 0.00 0.00 82 1017.2
20260507060025 60 232 0.0 1.7 0.00 0.00 0.00 83 1017.3
20260507054529 60 240 0.9 3.5 0.00 0.00 0.00 85 1017.2
20260507053025 61 260 1.7 5.2 0.00 0.00 0.00 84 1017.2
20260507051524 61 234 0.0 3.5 0.00 0.00 0.00 84 1017.3
20260507050033 61 242 0.9 4.3 0.00 0.00 0.00 83 1017.2
20260507044533 61 256 0.9 5.2 0.00 0.00 0.00 83 1017.2
20260507043023 61 239 1.7 4.3 0.00 0.00 0.00 82 1017.0
20260507041530 62 226 0.9 6.1 0.00 0.00 0.00 81 1016.9
20260507040022 62 250 2.6 7.0 0.00 0.00 0.00 81 1017.0
20260507034521 62 273 1.7 5.2 0.00 0.00 0.00 79 1016.8
20260507033025 63 227 2.6 6.1 0.00 0.00 0.00 77 1016.6
20260507031526 63 229 0.9 7.0 0.00 0.00 0.00 73 1016.6
20260507030020 63 219 0.9 5.2 0.00 0.00 0.00 72 1016.4
20260507024519 64 264 4.3 8.7 0.00 0.00 0.00 72 1016.3
20260507023019 64 285 2.6 6.1 0.00 0.00 0.00 70 1016.3
20260507021518 65 258 1.7 7.8 0.00 0.00 0.00 69 1016.2
20260507020018 65 237 3.5 8.7 0.00 0.00 0.00 69 1016.1
20260507014519 66 221 2.6 9.6 0.00 0.00 0.00 68 1015.9
20260507013022 66 252 2.6 11.3 0.00 0.00 0.00 68 1016.0
20260507011519 68 251 4.3 8.7 0.00 0.00 0.00 67 1015.9
20260507010016 68 200 3.5 7.8 0.00 0.00 0.00 65 1015.8
20260507004530 68 241 3.5 11.3 0.00 0.00 0.00 64 1015.8
20260507003014 69 250 4.3 9.6 0.00 0.00 0.00 62 1015.8
20260507001514 69 212 4.3 9.6 0.00 0.00 0.00 61 1015.6
20260507000017 69 201 3.5 9.6 0.00 0.00 0.00 61 1015.5
20260506234516 70 255 3.5 11.3 0.00 0.00 0.00 61 1015.4
20260506233012 69 256 5.2 13.0 0.00 0.00 0.00 61 1015.4
20260506231528 70 244 1.7 12.2 0.00 0.00 0.00 61 1015.5
20260506230010 69 254 3.5 11.3 0.00 0.00 0.00 64 1015.5
20260506224510 69 239 7.0 13.9 0.00 0.00 0.00 64 1015.6
20260506223008 69 227 6.1 11.3 0.00 0.00 0.00 63 1015.7
20260506221508 70 253 5.2 13.0 0.00 0.00 0.00 63 1015.7
20260506220006 70 215 4.3 11.3 0.00 0.00 0.00 62 1015.9
20260506214504 70 200 4.3 11.3 0.00 0.00 0.00 62 1015.9
20260506213003 71 230 5.2 14.8 0.00 0.00 0.00 60 1016.0
20260506211504 71 57 2.6 9.6 0.00 0.00 0.00 59 1016.2
20260506210001 70 346 4.3 12.2 0.00 0.00 0.00 61 1016.1
20260506204601 69 250 7.0 15.6 0.00 0.00 0.00 62 1016.2
20260506203103 70 234 7.8 18.2 0.00 0.00 0.00 62 1016.3
20260506201609 70 229 4.3 13.9 0.00 0.00 0.00 62 1016.5
20260506194609 70 265 7.8 15.6 0.00 0.00 0.00 60 1016.7
20260506193055 71 290 5.2 11.3 0.00 0.00 0.00 59 1016.8
20260506191552 70 263 6.1 11.3 0.00 0.00 0.00 61 1016.9
20260506190050 70 202 6.1 12.2 0.00 0.00 0.00 59 1017.2
20260506184558 70 220 4.3 13.0 0.00 0.00 0.00 61 1017.2
20260506183058 69 172 1.7 9.6 0.00 0.00 0.00 61 1017.4
20260506181545 68 161 2.6 8.7 0.00 0.00 0.00 60 1017.5
20260506180048 68 226 2.6 5.2 0.00 0.00 0.00 59 1017.7
20260506174545 67 202 2.6 7.0 0.00 0.00 0.00 62 1017.8
20260506173049 68 240 2.6 7.0 0.00 0.00 0.00 60 1018.0
20260506171541 67 107 1.7 3.5 0.00 0.00 0.00 65 1018.1
20260506170055 66 265 1.7 5.2 0.00 0.00 0.00 64 1018.2
20260506164534 65 308 1.7 7.0 0.00 0.01 0.00 65 1018.2
20260506163034 64 11 1.7 4.3 0.00 0.01 0.00 70 1018.3
20260506161530 63 355 1.7 4.3 0.00 0.01 0.00 71 1018.2
20260506160028 62 30 2.6 5.2 0.00 0.01 0.00 71 1018.2
20260506154527 61 344 0.9 3.5 0.00 0.04 0.00 73 1018.2
20260506153022 61 37 0.9 3.5 0.00 0.04 0.00 74 1018.2
20260506151519 59 355 1.7 2.6 0.00 0.04 0.00 77 1018.3
20260506150015 57 325 0.9 2.6 0.00 0.04 0.00 77 1018.4
20260506144512 56 13 0.9 2.6 0.00 0.04 0.00 80 1018.4
20260506143020 55 339 0.9 2.6 0.00 0.04 0.00 82 1018.3
20260506141510 54 344 0.0 2.6 0.00 0.04 0.00 85 1018.2
20260506140007 52 355 0.9 3.5 0.00 0.04 0.00 85 1018.2